weather.gov     
National Weather Service

Regional Weather Roundup
NWS Homepage
This page is being discontinued on March 12, 2014.
The same data is available at this site. Please update your bookmarks.
Thank you, and we apologize for the inconvenience.
Please send an email to SR-SRH.Webmaster@noaa.gov with any concerns.


Current Version
Previous Version:    01  02  03  04  05  06  07  08  09  10  11  12  13  14  15  16  17  18  19  20  21  22  23  24  25  26  27  28  29  30  
   31  32  33  34  35  36  37  38  39  40  41  42  43  44  45  46  47  48  49  50  51  52  53  54  
[Printable]
807
ASUS45 KABQ 261401
RWRNM
WEATHER ROUNDUP FOR NEW MEXICO
NATIONAL WEATHER SERVICE ALBUQUERQUE NM
700 AM MST WED NOV 26 2014

NOTE: "FAIR" MEANS FEW OR NO CLOUDS BELOW 12,000 FEET AGL WITH NO
       SIGNIFICANT WEATHER OR OBSTRUCTIONS TO VISION.

      THIS PRODUCT IS RELEASED AS TWO VERSIONS.  ONE VERSION NEAR
      THE TOP OF THE HOUR CONTAINING PRELIMINARY DATA FROM ALBUQUERQUE
      AND OTHER STATIONS.  A FINAL VERSION WITH ADDITIONAL DATA IS
      ISSUED ABOUT 10 MINUTES AFTER THE HOUR.

NMZ501-503-504-510>518-261500-
NORTHWEST PLATEAU/NORTHCENTRAL MOUNTAINS

CITY           SKY/WX    TMP DP  RH WIND       PRES   REMARKS
FARMINGTON     CLEAR     26   7  44 N5        30.35R WCI  20
SANTA FE       PTCLDY    31  12  45 SW9       30.30R WCI  23
TAOS           PTCLDY    12   9  85 N3        30.32R

$$
NMZ402-403-502-505>509-261500-
WESTCENTRAL MOUNTAINS/SOUTHWEST MOUNTAINS

CITY           SKY/WX    TMP DP  RH WIND       PRES   REMARKS
GALLUP         PTCLDY    19   2  47 W3        30.41R
SILVER CITY    CLEAR     36  10  35 N12       30.36R WCI  27

$$
NMZ407-409-411-412-261500-
SOUTHERN DESERTS

CITY           SKY/WX    TMP DP  RH WIND       PRES   REMARKS
DEMING         PTCLDY    26   5  40 CALM      30.35R
HOLLOMAN AFB   PTCLDY    29   7  39 N12       30.31R WCI  20
ALAMOGORDO     PTCLDY    27   7  43 CALM      30.32R
T OR C         CLEAR     32  11  41 NW6       30.34R WCI  26

$$
NMZ519>523-261500-
CENTRAL VALLEYS/CENTRAL HIGHLANDS

CITY           SKY/WX    TMP DP  RH WIND       PRES   REMARKS
ALBUQUERQUE    PTCLDY    32   7  35 CALM      30.36R
DOUBLE EAGLE   MOCLDY    27   7  43 CALM      30.36R
MORIARTY ARPT  FAIR      28  13  55 CALM      30.33S
CLINES CORNERS PTCLDY    29  14  53 NW10      30.29R WCI  20
BELEN          FAIR      23   5  46 CALM      30.36R
SOCORRO        NOT AVBL

$$
NMZ524>526-539-540-261500-
SOUTHCENTRAL MOUNTAINS

CITY           SKY/WX    TMP DP  RH WIND       PRES   REMARKS
RUIDOSO        CLEAR     39  18  41 W9        30.33R WCI  33

$$
NMZ527>531-261500-
NORTHEAST HIGHLANDS/NORTHEAST PLAINS

CITY           SKY/WX    TMP DP  RH WIND       PRES   REMARKS
LAS VEGAS      PTCLDY    34  18  52 N3        30.22R
RATON          PTCLDY    24  19  81 NE7       30.19R WCI  16
CLAYTON        PTCLDY    26  23  88 N10       30.22R WCI  16

$$
NMZ532>537-261500-
EASTCENTRAL PLAINS

CITY           SKY/WX    TMP DP  RH WIND       PRES   REMARKS
TUCUMCARI      CLOUDY    30  24  78 CALM      30.24R
CANNON AFB     PTCLDY    34  21  60 NE7       30.24R WCI  28
CLOVIS AIRPORT PTCLDY    34  21  60 N12       30.23R WCI  25

$$
NMZ028-029-538-261500-
SOUTHEAST PLAINS

CITY           SKY/WX    TMP DP  RH WIND       PRES   REMARKS
ROSWELL        PTCLDY    29  17  61 S8        30.22R WCI  21
CARLSBAD       PTCLDY    34  17  50 S6        30.21R WCI  29
HOBBS          CLEAR     41  16  36 W14       30.20R


$$




U.S. Dept. of Commerce
NOAA National Weather Service
1325 East West Highway
Silver Spring, MD 20910
E-mail: w-nws.webmaster@noaa.gov
Page last modified: May 16, 2007
NATIONAL WEATHER SERVICE: for Safety, for Work, for Fun - FOR LIFE